Location: Unspecified
(0.0000°N, 0.0000°E)
Time: 17:25:20
(UTC+00:00)

Tiangong 2 - Pass Details

Date: 12 December 2018
Orbit: 382 x 391 km, 42.8° (Epoch: 12 December)

Event Time Altitude Azimuth Distance (km) Brightness Sun altitude
Rises 18:43:53 0° 236° (SW) 2,252 6.9 -11.5°
Reaches altitude 10° 18:46:02 10° 244° (WSW) 1,396 5.4 -12.0°
Maximum altitude 18:49:00 39° 315° (NW) 587 2.1 -12.7°
Enters shadow 18:51:13 15° 20° (NNE) 1,112 3.0 -13.2°
